TIME,�g�[�m���b�g���n,�t���O,�g�[�mMJ�n,�t���O
2002/11/1 0:00,0,0,0,0
2002/11/1 0:15,0,0,0,0
2002/11/1 0:30,0,0,0,0
2002/11/1 0:45,0,0,0,0
2002/11/1 1:00,0,0,0,0
2002/11/1 1:15,0,0,0,0
2002/11/1 1:30,0,0,0,0
2002/11/1 1:45,0,0,0,0
2002/11/1 2:00,0,0,0,0
2002/11/1 2:15,0,0,0,0
2002/11/1 2:30,0,0,0,0
2002/11/1 2:45,0,0,0,0
2002/11/1 3:00,0,0,0,0
2002/11/1 3:15,0,0,0,0
2002/11/1 3:30,0,0,0,0
2002/11/1 3:45,0,0,0,0
2002/11/1 4:00,0,0,0,0
2002/11/1 4:15,0,0,0,0
2002/11/1 4:30,0,0,0,0
2002/11/1 4:45,0,0,0,0
2002/11/1 5:00,0.00031073,0,38.03,0
2002/11/1 5:15,0.00013846,0,16.85,0
2002/11/1 5:30,0.0001288,0,15.84,0
2002/11/1 5:45,0.00013041,0,16.02,0
2002/11/1 6:00,0.00011592,0,14.09,0
2002/11/1 6:15,0.00013846,0,17.02,0
2002/11/1 6:30,0.00010787,0,13.21,0
2002/11/1 6:45,0.00013846,0,17.02,0
2002/11/1 7:00,0.0001127,0,13.76,0
2002/11/1 7:15,0.00012719,0,15.62,0
2002/11/1 7:30,0.00011109,0,13.59,0
2002/11/1 7:45,0.00013524,0,16.64,0
2002/11/1 8:00,0.00011431,0,13.99,0
2002/11/1 8:15,0.00012236,0,14.94,0
2002/11/1 8:30,0.00010626,0,13.05,0
2002/11/1 8:45,0.00011914,0,14.56,0
2002/11/1 9:00,0.00002093,0,2.51,0
2002/11/1 9:15,0,0,0,0
2002/11/1 9:30,0,0,0,0
2002/11/1 9:45,0,0,0,0
2002/11/1 10:00,0,0,0,0
2002/11/1 10:15,0,0,0,0
2002/11/1 10:30,0.00003703,0,4.59,0
2002/11/1 10:45,0,0,0,0
2002/11/1 11:00,0.00013685,0,16.73,0
2002/11/1 11:15,0.00006601,0,8.11,0
2002/11/1 11:30,0.00005957,0,7.35,0
2002/11/1 11:45,0.00006279,0,7.75,0
2002/11/1 12:00,0.0000644,0,7.87,0
2002/11/1 12:15,0.00006601,0,8.08,0
2002/11/1 12:30,0.00006762,0,8.25,0
2002/11/1 12:45,0.00003381,0,4.18,0
2002/11/1 13:00,0.00006279,0,7.73,0
2002/11/1 13:15,0.00006601,0,8.15,0
2002/11/1 13:30,0.00007728,0,9.48,0
2002/11/1 13:45,0.00006279,0,7.63,0
2002/11/1 14:00,0.00004347,0,5.22,0
2002/11/1 14:15,0.0000644,0,7.8,0
2002/11/1 14:30,0.00007084,0,8.6,0
2002/11/1 14:45,0.00003703,0,4.44,0
2002/11/1 15:00,0.00007567,0,9.26,0
2002/11/1 15:15,0.00006601,0,8.13,0
2002/11/1 15:30,0.00003864,0,4.63,0
2002/11/1 15:45,0.00006601,0,8.11,0
2002/11/1 16:00,0.00007084,0,8.63,0
2002/11/1 16:15,0.00006118,0,7.54,0
2002/11/1 16:30,0.0000644,0,7.97,0
2002/11/1 16:45,0.00006279,0,7.66,0
2002/11/1 17:00,0.00006279,0,7.7,0
2002/11/1 17:15,0.00003703,0,4.54,0
2002/11/1 17:30,0.00006601,0,7.99,0
2002/11/1 17:45,0.00006601,0,8.13,0
2002/11/1 18:00,0.00006601,0,8.13,0
2002/11/1 18:15,0.00007245,0,8.96,0
2002/11/1 18:30,0.00003542,0,4.33,0
2002/11/1 18:45,0.00007728,0,9.38,0
2002/11/1 19:00,0.00007245,0,8.91,0
2002/11/1 19:15,0.00003542,0,4.37,0
2002/11/1 19:30,0.00006762,0,8.32,0
2002/11/1 19:45,0.0000644,0,7.92,0
2002/11/1 20:00,0.0000644,0,7.82,0
2002/11/1 20:15,0.00006762,0,8.32,0
2002/11/1 20:30,0.00004186,0,5.03,0
2002/11/1 20:45,0.00005474,0,6.62,0
2002/11/1 21:00,0.00006762,0,8.2,0
2002/11/1 21:15,0.00006279,0,7.7,0
2002/11/1 21:30,0.00006762,0,8.3,0
2002/11/1 21:45,0.00003542,0,4.25,0
2002/11/1 22:00,0.00006923,0,8.39,0
2002/11/1 22:15,0.00007567,0,9.22,0
2002/11/1 22:30,0.00004991,0,6.17,0
2002/11/1 22:45,0.00005957,0,7.33,0
2002/11/1 23:00,0.0000322,0,3.95,0
2002/11/1 23:15,0,0,0,0
2002/11/1 23:30,0,0,0,0
2002/11/1 23:45,0,0,0,0
2002/11/2 0:00,0,0,0,0
2002/11/2 0:15,0,0,0,0
2002/11/2 0:30,0,0,0,0
2002/11/2 0:45,0,0,0,0
2002/11/2 1:00,0,0,0,0
2002/11/2 1:15,0,0,0,0
2002/11/2 1:30,0,0,0,0
2002/11/2 1:45,0,0,0,0
2002/11/2 2:00,0,0,0,0
2002/11/2 2:15,0,0,0,0
2002/11/2 2:30,0,0,0,0
2002/11/2 2:45,0,0,0,0
2002/11/2 3:00,0,0,0,0
2002/11/2 3:15,0,0,0,0
2002/11/2 3:30,0,0,0,0
2002/11/2 3:45,0,0,0,0
2002/11/2 4:00,0,0,0,0
2002/11/2 4:15,0,0,0,0
2002/11/2 4:30,0,0,0,0
2002/11/2 4:45,0,0,0,0
2002/11/2 5:00,0.00021091,0,25.74,0
2002/11/2 5:15,0.00006601,0,7.99,0
2002/11/2 5:30,0.00008694,0,10.59,0
2002/11/2 5:45,0.00005957,0,7.26,0
2002/11/2 6:00,0.00008855,0,10.8,0
2002/11/2 6:15,0.00006601,0,8.08,0
2002/11/2 6:30,0.00006762,0,8.3,0
2002/11/2 6:45,0.00017871,0,21.93,0
2002/11/2 7:00,0.00013041,0,15.86,0
2002/11/2 7:15,0.00011109,0,13.5,0
2002/11/2 7:30,0.00012719,0,15.6,0
2002/11/2 7:45,0.0001288,0,15.67,0
2002/11/2 8:00,0.00012719,0,15.62,0
2002/11/2 8:15,0.00011431,0,13.92,0
2002/11/2 8:30,0.00013524,0,16.52,0
2002/11/2 8:45,0.0001127,0,13.71,0
2002/11/2 9:00,0,0,0,0
2002/11/2 9:15,0.00003703,0,4.54,0
2002/11/2 9:30,0.00005635,0,6.81,0
2002/11/2 9:45,0.00006601,0,8.13,0
2002/11/2 10:00,0.00006601,0,8.04,0
2002/11/2 10:15,0.00007084,0,8.7,0
2002/11/2 10:30,0.00006762,0,8.37,0
2002/11/2 10:45,0.00003864,0,4.7,0
2002/11/2 11:00,0.00008533,0,10.47,0
2002/11/2 11:15,0.00006923,0,8.56,0
2002/11/2 11:30,0.00006601,0,8.15,0
2002/11/2 11:45,0.00003542,0,4.3,0
2002/11/2 12:00,0.00006118,0,7.54,0
2002/11/2 12:15,0.00007245,0,8.91,0
2002/11/2 12:30,0.00006762,0,8.27,0
2002/11/2 12:45,0.0000644,0,7.82,0
2002/11/2 13:00,0.00006279,0,7.7,0
2002/11/2 13:15,0.00005474,0,6.76,0
2002/11/2 13:30,0.00007728,0,9.41,0
2002/11/2 13:45,0.00005957,0,7.37,0
2002/11/2 14:00,0.00007084,0,8.6,0
2002/11/2 14:15,0.00004347,0,5.25,0
2002/11/2 14:30,0.00008211,0,10.14,0
2002/11/2 14:45,0.00003703,0,4.61,0
2002/11/2 15:00,0.00007245,0,8.89,0
2002/11/2 15:15,0.0000644,0,7.8,0
2002/11/2 15:30,0.00006279,0,7.7,0
2002/11/2 15:45,0.00006118,0,7.52,0
2002/11/2 16:00,0.0000644,0,7.82,0
2002/11/2 16:15,0.00006923,0,8.39,0
2002/11/2 16:30,0.00006601,0,8.13,0
2002/11/2 16:45,0.00006762,0,8.22,0
2002/11/2 17:00,0.00006118,0,7.47,0
2002/11/2 17:15,0.00007084,0,8.6,0
2002/11/2 17:30,0.00006601,0,8.06,0
2002/11/2 17:45,0.00006118,0,7.47,0
2002/11/2 18:00,0.00006923,0,8.44,0
2002/11/2 18:15,0.00004669,0,5.74,0
2002/11/2 18:30,0.00007084,0,8.58,0
2002/11/2 18:45,0.00007084,0,8.7,0
2002/11/2 19:00,0.00016744,0,20.52,0
2002/11/2 19:15,0.00014007,0,17.04,0
2002/11/2 19:30,0.00012397,0,15.17,0
2002/11/2 19:45,0.00011431,0,13.97,0
2002/11/2 20:00,0.00012397,0,15.2,0
2002/11/2 20:15,0.00012397,0,15.17,0
2002/11/2 20:30,0.00011592,0,14.23,0
2002/11/2 20:45,0.00014168,0,17.42,0
2002/11/2 21:00,0.00011914,0,14.51,0
2002/11/2 21:15,0.00010465,0,12.83,0
2002/11/2 21:30,0.00014007,0,17.16,0
2002/11/2 21:45,0.00011592,0,14.23,0
2002/11/2 22:00,0.00011753,0,14.3,0
2002/11/2 22:15,0.00012719,0,15.53,0
2002/11/2 22:30,0.00012397,0,15.1,0
2002/11/2 22:45,0.00011109,0,13.68,0
2002/11/2 23:00,0.00006279,0,7.68,0
2002/11/2 23:15,0,0,0,0
2002/11/2 23:30,0,0,0,0
2002/11/2 23:45,0,0,0,0
2002/11/3 0:00,0,0,0,0
2002/11/3 0:15,0,0,0,0
2002/11/3 0:30,0,0,0,0
2002/11/3 0:45,0,0,0,0
2002/11/3 1:00,0,0,0,0
2002/11/3 1:15,0,0,0,0
2002/11/3 1:30,0,0,0,0
2002/11/3 1:45,0,0,0,0
2002/11/3 2:00,0,0,0,0
2002/11/3 2:15,0,0,0,0
2002/11/3 2:30,0,0,0,0
2002/11/3 2:45,0,0,0,0
2002/11/3 3:00,0,0,0,0
2002/11/3 3:15,0,0,0,0
2002/11/3 3:30,0,0,0,0
2002/11/3 3:45,0,0,0,0
2002/11/3 4:00,0,0,0,0
2002/11/3 4:15,0,0,0,0
2002/11/3 4:30,0,0,0,0
2002/11/3 4:45,0,0,0,0
2002/11/3 5:00,0.00030268,0,36.99,0
2002/11/3 5:15,0.00015456,0,18.86,0
2002/11/3 5:30,0.00013363,0,16.28,0
2002/11/3 5:45,0.00012719,0,15.55,0
2002/11/3 6:00,0.00013524,0,16.62,0
2002/11/3 6:15,0.00013363,0,16.33,0
2002/11/3 6:30,0.00012719,0,15.5,0
2002/11/3 6:45,0.00012719,0,15.65,0
2002/11/3 7:00,0.00013041,0,15.91,0
2002/11/3 7:15,0.00013846,0,16.95,0
2002/11/3 7:30,0.00012719,0,15.53,0
2002/11/3 7:45,0.0001127,0,13.8,0
2002/11/3 8:00,0.00013846,0,16.88,0
2002/11/3 8:15,0.00023506,0,28.69,0
2002/11/3 8:30,0.00018515,0,22.64,0
2002/11/3 8:45,0.00018515,0,22.67,0
2002/11/3 9:00,0.00017227,0,21.06,0
2002/11/3 9:15,0.00018837,0,23.14,0
2002/11/3 9:30,0.0001771,0,21.6,0
2002/11/3 9:45,0.00016905,0,20.63,0
2002/11/3 10:00,0.00018998,0,23.19,0
2002/11/3 10:15,0.00017066,0,20.82,0
2002/11/3 10:30,0.00017066,0,20.89,0
2002/11/3 10:45,0.00018998,0,23.21,0
2002/11/3 11:00,0.00016905,0,20.7,0
2002/11/3 11:15,0.0001771,0,21.63,0
2002/11/3 11:30,0.00018193,0,22.19,0
2002/11/3 11:45,0.00016905,0,20.63,0
2002/11/3 12:00,0.00018032,0,21.98,0
2002/11/3 12:15,0.0001771,0,21.67,0
2002/11/3 12:30,0.00016583,0,20.35,0
2002/11/3 12:45,0.0001771,0,21.67,0
2002/11/3 13:00,0.00018032,0,22.1,0
2002/11/3 13:15,0.00016583,0,20.3,0
2002/11/3 13:30,0.00016905,0,20.61,0
2002/11/3 13:45,0.00005957,0,7.21,0
2002/11/3 14:00,0.00008855,0,10.78,0
2002/11/3 14:15,0.00010948,0,13.35,0
2002/11/3 14:30,0.00012558,0,15.29,0
2002/11/3 14:45,0.00010787,0,13.21,0
2002/11/3 15:00,0.00011753,0,14.42,0
2002/11/3 15:15,0.00011753,0,14.3,0
2002/11/3 15:30,0.0000966,0,11.72,0
2002/11/3 15:45,0.00012558,0,15.32,0
2002/11/3 16:00,0.00012236,0,14.94,0
2002/11/3 16:15,0.00010143,0,12.31,0
2002/11/3 16:30,0.00011753,0,14.35,0
2002/11/3 16:45,0.0001127,0,13.71,0
2002/11/3 17:00,0.00012719,0,15.65,0
2002/11/3 17:15,0.00011753,0,14.35,0
2002/11/3 17:30,0.00013041,0,15.93,0
2002/11/3 17:45,0.00010465,0,12.72,0
2002/11/3 18:00,0.0001127,0,13.85,0
2002/11/3 18:15,0.00013041,0,15.98,0
2002/11/3 18:30,0.00010304,0,12.6,0
2002/11/3 18:45,0.00010465,0,12.74,0
2002/11/3 19:00,0.00012719,0,15.53,0
2002/11/3 19:15,0.00013524,0,16.5,0
2002/11/3 19:30,0.00010626,0,13.07,0
2002/11/3 19:45,0.00010948,0,13.45,0
2002/11/3 20:00,0.00013363,0,16.28,0
2002/11/3 20:15,0.00010304,0,12.57,0
2002/11/3 20:30,0.00012558,0,15.46,0
2002/11/3 20:45,0.00025438,0,31.17,0
2002/11/3 21:00,0.00018837,0,22.95,0
2002/11/3 21:15,0.00017066,0,20.89,0
2002/11/3 21:30,0.00016905,0,20.75,0
2002/11/3 21:45,0.00018837,0,23.14,0
2002/11/3 22:00,0.00016905,0,20.61,0
2002/11/3 22:15,0.00016905,0,20.63,0
2002/11/3 22:30,0.00018676,0,22.83,0
2002/11/3 22:45,0.00016583,0,20.33,0
2002/11/3 23:00,0.00016583,0,20.35,0
2002/11/3 23:15,0.00017549,0,21.55,0
2002/11/3 23:30,0.0001771,0,21.58,0
2002/11/3 23:45,0.00002093,0,2.62,0
2002/11/4 0:00,0,0,0,0
2002/11/4 0:15,0,0,0,0
2002/11/4 0:30,0,0,0,0
2002/11/4 0:45,0,0,0,0
2002/11/4 1:00,0,0,0,0
2002/11/4 1:15,0,0,0,0
2002/11/4 1:30,0,0,0,0
2002/11/4 1:45,0,0,0,0
2002/11/4 2:00,0,0,0,0
2002/11/4 2:15,0.00000161,0,0.24,0
2002/11/4 2:30,0,0,0,0
2002/11/4 2:45,0,0,0,0
2002/11/4 3:00,0,0,0,0
2002/11/4 3:15,0,0,0,0
2002/11/4 3:30,0,0,0,0
2002/11/4 3:45,0,0,0,0
2002/11/4 4:00,0,0,0,0
2002/11/4 4:15,0,0,0,0
2002/11/4 4:30,0,0,0,0
2002/11/4 4:45,0,0,0,0
2002/11/4 5:00,0.00028819,0,35.17,0
2002/11/4 5:15,0.00025921,0,31.72,0
2002/11/4 5:30,0.00017227,0,21.15,0
2002/11/4 5:45,0.00017227,0,21.08,0
2002/11/4 6:00,0.00020125,0,24.67,0
2002/11/4 6:15,0.00019159,0,23.37,0
2002/11/4 6:30,0.00017227,0,21.06,0
2002/11/4 6:45,0.00018354,0,22.38,0
2002/11/4 7:00,0.00018032,0,22,0
2002/11/4 7:15,0.00017227,0,21.06,0
2002/11/4 7:30,0.00019159,0,23.47,0
2002/11/4 7:45,0.00016744,0,20.54,0
2002/11/4 8:00,0.00029141,0,35.74,0
2002/11/4 8:15,0.00016583,0,20.28,0
2002/11/4 8:30,0.00010626,0,13.07,0
2002/11/4 8:45,0.00014651,0,17.99,0
2002/11/4 9:00,0.00029302,0,35.88,0
2002/11/4 9:15,0.00018354,0,22.5,0
2002/11/4 9:30,0.00025277,0,31.01,0
2002/11/4 9:45,0.00021735,0,26.68,0
2002/11/4 10:00,0.00018354,0,22.55,0
2002/11/4 10:15,0.00019964,0,24.41,0
2002/11/4 10:30,0.00025438,0,31.06,0
2002/11/4 10:45,0.00019481,0,23.8,0
2002/11/4 11:00,0.00009177,0,11.18,0
2002/11/4 11:15,0.00016905,0,20.63,0
2002/11/4 11:30,0.00017227,0,21.08,0
2002/11/4 11:45,0.0001449,0,17.63,0
2002/11/4 12:00,0.00017871,0,21.89,0
2002/11/4 12:15,0.00016583,0,20.23,0
2002/11/4 12:30,0.00016905,0,20.63,0
2002/11/4 12:45,0.00018193,0,22.22,0
2002/11/4 13:00,0.00016583,0,20.37,0
2002/11/4 13:15,0.00016744,0,20.56,0
2002/11/4 13:30,0.00018515,0,22.67,0
2002/11/4 13:45,0.00016583,0,20.33,0
2002/11/4 14:00,0.00016583,0,20.37,0
2002/11/4 14:15,0.00018676,0,22.81,0
2002/11/4 14:30,0.00016583,0,20.23,0
2002/11/4 14:45,0.00016905,0,20.7,0
2002/11/4 15:00,0.00018354,0,22.52,0
2002/11/4 15:15,0.00016583,0,20.3,0
2002/11/4 15:30,0.00017388,0,21.32,0
2002/11/4 15:45,0.0001771,0,21.72,0
2002/11/4 16:00,0.00016583,0,20.35,0
2002/11/4 16:15,0.0001771,0,21.58,0
2002/11/4 16:30,0.00017549,0,21.51,0
2002/11/4 16:45,0.00016422,0,20.14,0
2002/11/4 17:00,0.00018193,0,22.19,0
2002/11/4 17:15,0.00017227,0,20.99,0
2002/11/4 17:30,0.00016583,0,20.33,0
2002/11/4 17:45,0.00017871,0,21.79,0
2002/11/4 18:00,0.00017388,0,21.34,0
2002/11/4 18:15,0.00016583,0,20.35,0
2002/11/4 18:30,0.00018032,0,21.98,0
2002/11/4 18:45,0.00017227,0,21.06,0
2002/11/4 19:00,0.00016583,0,20.35,0
2002/11/4 19:15,0.00018676,0,22.85,0
2002/11/4 19:30,0.00016744,0,20.42,0
2002/11/4 19:45,0.00016744,0,20.42,0
2002/11/4 20:00,0.00018354,0,22.52,0
2002/11/4 20:15,0.00016744,0,20.42,0
2002/11/4 20:30,0.00017227,0,21.13,0
2002/11/4 20:45,0.00018032,0,21.98,0
2002/11/4 21:00,0.00016583,0,20.33,0
2002/11/4 21:15,0.00017871,0,21.77,0
2002/11/4 21:30,0.00017549,0,21.53,0
2002/11/4 21:45,0.00016583,0,20.37,0
2002/11/4 22:00,0.00018193,0,22.24,0
2002/11/4 22:15,0.00017227,0,21.13,0
2002/11/4 22:30,0.00016583,0,20.33,0
2002/11/4 22:45,0.00018193,0,22.19,0
2002/11/4 23:00,0.00009016,0,11.08,0
2002/11/4 23:15,0,0,0,0
2002/11/4 23:30,0,0,0,0
2002/11/4 23:45,0,0,0,0
2002/11/5 0:00,0,0,0,0
2002/11/5 0:15,0,0,0,0
2002/11/5 0:30,0,0,0,0
2002/11/5 0:45,0,0,0,0
2002/11/5 1:00,0,0,0,0
2002/11/5 1:15,0,0,0,0
2002/11/5 1:30,0,0,0,0
2002/11/5 1:45,0,0,0,0
2002/11/5 2:00,0,0,0,0
2002/11/5 2:15,0,0,0,0
2002/11/5 2:30,0,0,0,0
2002/11/5 2:45,0,0,0,0
2002/11/5 3:00,0,0,0,0
2002/11/5 3:15,0,0,0,0
2002/11/5 3:30,0,0,0,0
2002/11/5 3:45,0,0,0,0
2002/11/5 4:00,0,0,0,0
2002/11/5 4:15,0,0,0,0
2002/11/5 4:30,0,0,0,0
2002/11/5 4:45,0,0,0,0
2002/11/5 5:00,0.00028175,0,34.53,0
2002/11/5 5:15,0.00027531,0,33.61,0
2002/11/5 5:30,0.00020769,0,25.31,0
2002/11/5 5:45,0.00019803,0,24.15,0
2002/11/5 6:00,0.00018515,0,22.71,0
2002/11/5 6:15,0.00017871,0,21.93,0
2002/11/5 6:30,0.00019642,0,24.04,0
2002/11/5 6:45,0.00021735,0,26.61,0
2002/11/5 7:00,0.0002254,0,27.51,0
2002/11/5 7:15,0.00019481,0,23.8,0
2002/11/5 7:30,0.00021735,0,26.66,0
2002/11/5 7:45,0.00019803,0,24.32,0
2002/11/5 8:00,0.0002093,0,25.69,0
2002/11/5 8:15,0.00019803,0,24.32,0
2002/11/5 8:30,0.00020769,0,25.36,0
2002/11/5 8:45,0.00019964,0,24.46,0
2002/11/5 9:00,0.00020608,0,25.19,0
2002/11/5 9:15,0.00019642,0,24.04,0
2002/11/5 9:30,0.00020447,0,25.08,0
2002/11/5 9:45,0.00019481,0,23.89,0
2002/11/5 10:00,0.00020769,0,25.34,0
2002/11/5 10:15,0.00019642,0,23.99,0
2002/11/5 10:30,0.00020125,0,24.6,0
2002/11/5 10:45,0.00017227,0,21.04,0
2002/11/5 11:00,0,0,0,0
2002/11/5 11:15,0.00013524,0,16.45,0
2002/11/5 11:30,0.00009016,0,11.06,0
2002/11/5 11:45,0.00014329,0,17.58,0
2002/11/5 12:00,0.00011431,0,14.02,0
2002/11/5 12:15,0.00011109,0,13.68,0
2002/11/5 12:30,0.00012719,0,15.55,0
2002/11/5 12:45,0.0001127,0,13.85,0
2002/11/5 13:00,0.00013041,0,16,0
2002/11/5 13:15,0.00010304,0,12.57,0
2002/11/5 13:30,0.00012236,0,15.03,0
2002/11/5 13:45,0.00013202,0,16.19,0
2002/11/5 14:00,0.0000966,0,11.91,0
2002/11/5 14:15,0.00013041,0,16,0
2002/11/5 14:30,0.00012558,0,15.46,0
2002/11/5 14:45,0.00012236,0,14.91,0
2002/11/5 15:00,0.0001288,0,15.69,0
2002/11/5 15:15,0.00011592,0,14.23,0
2002/11/5 15:30,0.00012236,0,15.03,0
2002/11/5 15:45,0.0001127,0,13.87,0
2002/11/5 16:00,0.00013202,0,16.21,0
2002/11/5 16:15,0.00012558,0,15.27,0
2002/11/5 16:30,0.00012075,0,14.77,0
2002/11/5 16:45,0.00012236,0,14.98,0
2002/11/5 17:00,0.00011431,0,13.94,0
2002/11/5 17:15,0.00013041,0,16.02,0
2002/11/5 17:30,0.00012236,0,14.96,0
2002/11/5 17:45,0.00012558,0,15.32,0
2002/11/5 18:00,0.00025277,0,30.96,0
2002/11/5 18:15,0.00022218,0,27.09,0
2002/11/5 18:30,0.00020608,0,25.12,0
2002/11/5 18:45,0.00020608,0,25.15,0
2002/11/5 19:00,0.00020286,0,24.79,0
2002/11/5 19:15,0.00019803,0,24.23,0
2002/11/5 19:30,0.00021252,0,25.95,0
2002/11/5 19:45,0.00018837,0,23.04,0
2002/11/5 20:00,0.00021091,0,25.86,0
2002/11/5 20:15,0.00018515,0,22.69,0
2002/11/5 20:30,0.0002093,0,25.53,0
2002/11/5 20:45,0.00018676,0,22.9,0
2002/11/5 21:00,0.00021091,0,25.74,0
2002/11/5 21:15,0.00018515,0,22.57,0
2002/11/5 21:30,0.0002093,0,25.6,0
2002/11/5 21:45,0.00018676,0,22.81,0
2002/11/5 22:00,0.00020608,0,25.29,0
2002/11/5 22:15,0.00018837,0,23.02,0
2002/11/5 22:30,0.00020608,0,25.15,0
2002/11/5 22:45,0.00018515,0,22.67,0
2002/11/5 23:00,0.00011592,0,14.28,0
2002/11/5 23:15,0,0,0,0
2002/11/5 23:30,0,0,0,0
2002/11/5 23:45,0,0,0,0
2002/11/6 0:00,0,0,0,0
2002/11/6 0:15,0,0,0,0
2002/11/6 0:30,0,0,0,0
2002/11/6 0:45,0,0,0,0
2002/11/6 1:00,0,0,0,0
2002/11/6 1:15,0,0,0,0
2002/11/6 1:30,0,0,0,0
2002/11/6 1:45,0,0,0,0
2002/11/6 2:00,0,0,0,0
2002/11/6 2:15,0,0,0,0
2002/11/6 2:30,0,0,0,0
2002/11/6 2:45,0,0,0,0
2002/11/6 3:00,0,0,0,0
2002/11/6 3:15,0,0,0,0
2002/11/6 3:30,0,0,0,0
2002/11/6 3:45,0,0,0,0
2002/11/6 4:00,0,0,0,0
2002/11/6 4:15,0,0,0,0
2002/11/6 4:30,0,0,0,0
2002/11/6 4:45,0,0,0,0
2002/11/6 5:00,0.00027853,0,34.03,0
2002/11/6 5:15,0.00035581,0,43.54,0
2002/11/6 5:30,0.00018676,0,22.76,0
2002/11/6 5:45,0.00025599,0,31.34,0
2002/11/6 6:00,0.00027209,0,33.3,0
2002/11/6 6:15,0.00019481,0,23.87,0
2002/11/6 6:30,0.00018837,0,23.02,0
2002/11/6 6:45,0.0002576,0,31.55,0
2002/11/6 7:00,0.00021735,0,26.61,0
2002/11/6 7:15,0.00018837,0,23.02,0
2002/11/6 7:30,0.00021574,0,26.42,0
2002/11/6 7:45,0.00015456,0,18.91,0
2002/11/6 8:00,0.00014329,0,17.47,0
2002/11/6 8:15,0.00011914,0,14.58,0
2002/11/6 8:30,0.00016744,0,20.56,0
2002/11/6 8:45,0.00015617,0,19.14,0
2002/11/6 9:00,0.00019803,0,24.13,0
2002/11/6 9:15,0.00018676,0,22.83,0
2002/11/6 9:30,0.00016744,0,20.44,0
2002/11/6 9:45,0.00016744,0,20.47,0
2002/11/6 10:00,0.00018837,0,23.02,0
2002/11/6 10:15,0.00016905,0,20.66,0
2002/11/6 10:30,0.00016905,0,20.68,0
2002/11/6 10:45,0.00001932,0,2.34,0
2002/11/6 11:00,0.00012558,0,15.29,0
2002/11/6 11:15,0.00010787,0,13.21,0
2002/11/6 11:30,0.0001127,0,13.71,0
2002/11/6 11:45,0.00011431,0,14.04,0
2002/11/6 12:00,0.00009499,0,11.65,0
2002/11/6 12:15,0.0001127,0,13.76,0
2002/11/6 12:30,0.00012719,0,15.53,0
2002/11/6 12:45,0.00012719,0,15.5,0
2002/11/6 13:00,0.00010143,0,12.34,0
2002/11/6 13:15,0.00011592,0,14.18,0
2002/11/6 13:30,0.00012719,0,15.55,0
2002/11/6 13:45,0.00012075,0,14.7,0
2002/11/6 14:00,0.00010465,0,12.86,0
2002/11/6 14:15,0.00012075,0,14.84,0
2002/11/6 14:30,0.00011592,0,14.16,0
2002/11/6 14:45,0.00011914,0,14.61,0
2002/11/6 15:00,0.00010143,0,12.41,0
2002/11/6 15:15,0.0001127,0,13.71,0
2002/11/6 15:30,0.00012236,0,14.96,0
2002/11/6 15:45,0.00011753,0,14.46,0
2002/11/6 16:00,0.00011914,0,14.54,0
2002/11/6 16:15,0.00009338,0,11.34,0
2002/11/6 16:30,0.00012719,0,15.53,0
2002/11/6 16:45,0.00011753,0,14.44,0
2002/11/6 17:00,0.00012397,0,15.13,0
2002/11/6 17:15,0.00011109,0,13.52,0
2002/11/6 17:30,0.00011753,0,14.35,0
2002/11/6 17:45,0.00011753,0,14.42,0
2002/11/6 18:00,0.00013524,0,16.47,0
2002/11/6 18:15,0.00012075,0,14.77,0
2002/11/6 18:30,0.00010304,0,12.69,0
2002/11/6 18:45,0.00024794,0,30.35,0
2002/11/6 19:00,0.00018837,0,23.11,0
2002/11/6 19:15,0.00017066,0,20.89,0
2002/11/6 19:30,0.00016744,0,20.4,0
2002/11/6 19:45,0.00018837,0,23.02,0
2002/11/6 20:00,0.00016583,0,20.21,0
2002/11/6 20:15,0.00017549,0,21.53,0
2002/11/6 20:30,0.00017871,0,21.96,0
2002/11/6 20:45,0.00016583,0,20.37,0
2002/11/6 21:00,0.00003059,0,3.83,0
2002/11/6 21:15,0.00011592,0,14.28,0
2002/11/6 21:30,0.0001127,0,13.85,0
2002/11/6 21:45,0.00009982,0,12.27,0
2002/11/6 22:00,0.0001288,0,15.84,0
2002/11/6 22:15,0.00011431,0,13.9,0
2002/11/6 22:30,0.00011109,0,13.61,0
2002/11/6 22:45,0.00012075,0,14.84,0
2002/11/6 23:00,0.00007245,0,8.84,0
2002/11/6 23:15,0,0,0,0
2002/11/6 23:30,0,0,0,0
2002/11/6 23:45,0,0,0,0
2002/11/7 0:00,0,0,0,0
2002/11/7 0:15,0,0,0,0
2002/11/7 0:30,0,0,0,0
2002/11/7 0:45,0,0,0,0
2002/11/7 1:00,0,0,0,0
2002/11/7 1:15,0,0,0,0
2002/11/7 1:30,0,0,0,0
2002/11/7 1:45,0,0,0,0
2002/11/7 2:00,0,0,0,0
2002/11/7 2:15,0,0,0,0
2002/11/7 2:30,0,0,0,0
2002/11/7 2:45,0,0,0,0
2002/11/7 3:00,0,0,0,0
2002/11/7 3:15,0,0,0,0
2002/11/7 3:30,0,0,0,0
2002/11/7 3:45,0,0,0,0
2002/11/7 4:00,0,0,0,0
2002/11/7 4:15,0,0,0,0
2002/11/7 4:30,0,0,0,0
2002/11/7 4:45,0,0,0,0
2002/11/7 5:00,0.00027531,0,33.59,0
2002/11/7 5:15,0.00015617,0,19.07,0
2002/11/7 5:30,0.00014973,0,18.36,0
2002/11/7 5:45,0.00013363,0,16.38,0
2002/11/7 6:00,0.0001288,0,15.74,0
2002/11/7 6:15,0.00035259,0,43.13,0
2002/11/7 6:30,0.00019159,0,23.37,0
2002/11/7 6:45,0.00023506,0,28.76,0
2002/11/7 7:00,0.00023023,0,28.22,0
2002/11/7 7:15,0.00019642,0,24.01,0
2002/11/7 7:30,0.00021735,0,26.64,0
2002/11/7 7:45,0.00024794,0,30.28,0
2002/11/7 8:00,0.00018354,0,22.5,0
2002/11/7 8:15,0.00018515,0,22.62,0
2002/11/7 8:30,0,0,0,0
2002/11/7 8:45,0,0,0,0
2002/11/7 9:00,0.00003542,0,4.28,0
2002/11/7 9:15,0.00003703,0,4.61,0
2002/11/7 9:30,0.00006601,0,8.08,0
2002/11/7 9:45,0.00007084,0,8.63,0
2002/11/7 10:00,0.00006601,0,8.11,0
2002/11/7 10:15,0.00003542,0,4.4,0
2002/11/7 10:30,0.00006279,0,7.68,0
2002/11/7 10:45,0.0000644,0,7.96,0
2002/11/7 11:00,0.00004991,0,6.12,0
2002/11/7 11:15,0,0,0,0
2002/11/7 11:30,0,0,0,0
2002/11/7 11:45,0,0,0,0
2002/11/7 12:00,0,0,0,0
2002/11/7 12:15,0.00003864,0,4.7,0
2002/11/7 12:30,0,0,0,0
2002/11/7 12:45,0.00003703,0,4.61,0
2002/11/7 13:00,0,0,0,0
2002/11/7 13:15,0.00002737,0,3.36,0
2002/11/7 13:30,0.00001127,0,1.37,0
2002/11/7 13:45,0,0,0,0
2002/11/7 14:00,0.00003381,0,4.21,0
2002/11/7 14:15,0,0,0,0
2002/11/7 14:30,0.00003703,0,4.61,0
2002/11/7 14:45,0,0,0,0
2002/11/7 15:00,0.00003703,0,4.56,0
2002/11/7 15:15,0,0,0.02,0
2002/11/7 15:30,0.00003703,0,4.44,0
2002/11/7 15:45,0,0,0,0
2002/11/7 16:00,0.00013524,0,16.47,0
2002/11/7 16:15,0.00013846,0,16.95,0
2002/11/7 16:30,0.0000966,0,11.89,0
2002/11/7 16:45,0.00008211,0,10.09,0
2002/11/7 17:00,0.00009499,0,11.56,0
2002/11/7 17:15,0.00009177,0,11.32,0
2002/11/7 17:30,0.00009016,0,11.01,0
2002/11/7 17:45,0.00009177,0,11.16,0
2002/11/7 18:00,0.00010304,0,12.53,0
2002/11/7 18:15,0.00008694,0,10.68,0
2002/11/7 18:30,0.00006762,0,8.27,0
2002/11/7 18:45,0.00010465,0,12.83,0
2002/11/7 19:00,0.00007084,0,8.58,0
2002/11/7 19:15,0.00010626,0,12.9,0
2002/11/7 19:30,0.00007889,0,9.69,0
2002/11/7 19:45,0.00009177,0,11.16,0
2002/11/7 20:00,0.00009338,0,11.39,0
2002/11/7 20:15,0.00009177,0,11.3,0
2002/11/7 20:30,0.00008694,0,10.73,0
2002/11/7 20:45,0.00006923,0,8.56,0
2002/11/7 21:00,0.00008694,0,10.68,0
2002/11/7 21:15,0.00009338,0,11.46,0
2002/11/7 21:30,0.00008372,0,10.33,0
2002/11/7 21:45,0.00010465,0,12.72,0
2002/11/7 22:00,0.00008211,0,10.04,0
2002/11/7 22:15,0.00008694,0,10.68,0
2002/11/7 22:30,0.00008211,0,10.04,0
2002/11/7 22:45,0.00009499,0,11.65,0
2002/11/7 23:00,0.0000322,0,3.92,0
2002/11/7 23:15,0,0,0,0
2002/11/7 23:30,0,0,0,0
2002/11/7 23:45,0,0,0,0
2002/11/8 0:00,0,0,0,0
2002/11/8 0:15,0,0,0,0
2002/11/8 0:30,0,0,0,0
2002/11/8 0:45,0,0,0,0
2002/11/8 1:00,0,0,0,0
2002/11/8 1:15,0,0,0,0
2002/11/8 1:30,0,0,0,0
2002/11/8 1:45,0,0,0,0
2002/11/8 2:00,0,0,0,0
2002/11/8 2:15,0,0,0,0
2002/11/8 2:30,0,0,0,0
2002/11/8 2:45,0,0,0,0
2002/11/8 3:00,0,0,0,0
2002/11/8 3:15,0,0,0,0
2002/11/8 3:30,0,0,0,0
2002/11/8 3:45,0,0,0,0
2002/11/8 4:00,0,0,0,0
2002/11/8 4:15,0,0,0,0
2002/11/8 4:30,0,0,0,0
2002/11/8 4:45,0,0,0,0
2002/11/8 5:00,0.00027048,0,33.04,0
2002/11/8 5:15,0.0000966,0,11.84,0
2002/11/8 5:30,0.00008855,0,10.8,0
2002/11/8 5:45,0.00008372,0,10.28,0
2002/11/8 6:00,0.00010787,0,13.26,0
2002/11/8 6:15,0.00009177,0,11.18,0
2002/11/8 6:30,0.00011753,0,14.32,0
2002/11/8 6:45,0.00007889,0,9.67,0
2002/11/8 7:00,0.00010304,0,12.57,0
2002/11/8 7:15,0.00009016,0,11.11,0
2002/11/8 7:30,0.00009982,0,12.27,0
2002/11/8 7:45,0.00008855,0,10.75,0
2002/11/8 8:00,0.00009499,0,11.58,0
2002/11/8 8:15,0.00007084,0,8.58,0
2002/11/8 8:30,0.00008533,0,10.4,0
2002/11/8 8:45,0.00009821,0,11.98,0
2002/11/8 9:00,0.0000966,0,11.84,0
2002/11/8 9:15,0.00009177,0,11.2,0
2002/11/8 9:30,0.00007889,0,9.62,0
2002/11/8 9:45,0.00005635,0,6.85,0